This is the latest recevied weather packets stored in our database for station/object OK1KZE-6. If no packets are shown the sender has not sent any weather packets the latest 10 day(s).
| Time | Temp. | Humidity | Pressure | Rain* | Wind** | Luminosity | Snow |
|---|---|---|---|---|---|---|---|
| 1777998308 | 18.89° C | 59% | 1007.5 hPa | - | - | - | - |
| 1777998007 | 19.44° C | 56% | 1007.7 hPa | - | - | - | - |
| 1777997708 | 20° C | 57% | 1007.8 hPa | - | - | - | - |
| 1777997408 | 21.11° C | 54% | 1007.7 hPa | - | - | - | - |
| 1777997107 | 21.11° C | 53% | 1007.6 hPa | - | - | - | - |
| 1777996808 | 21.67° C | 52% | 1007.7 hPa | - | - | - | - |
| 1777996507 | 21.67° C | 51% | 1007.5 hPa | - | - | - | - |
| 1777996207 | 21.67° C | 51% | 1007.7 hPa | - | - | - | - |
| 1777995907 | 21.67° C | 49% | 1007.7 hPa | - | - | - | - |
| 1777995607 | 21.67° C | 48% | 1007.7 hPa | - | - | - | - |
| 1777995308 | 22.22° C | 49% | 1007.9 hPa | - | - | - | - |
| 1777995008 | 22.22° C | 47% | 1007.9 hPa | - | - | - | - |
| 1777994708 | 21.67° C | 48% | 1008 hPa | - | - | - | - |
| 1777994407 | 21.11° C | 48% | 1007.9 hPa | - | - | - | - |
| 1777994108 | 21.67° C | 46% | 1008 hPa | - | - | - | - |
| 1777993807 | 22.22° C | 44% | 1008.3 hPa | - | - | - | - |
| 1777993508 | 23.33° C | 44% | 1008.3 hPa | - | - | - | - |
| 1777993207 | 22.78° C | 44% | 1008.4 hPa | - | - | - | - |
| 1777992908 | 23.33° C | 44% | 1008.2 hPa | - | - | - | - |
| 1777992607 | 22.78° C | 44% | 1008.4 hPa | - | - | - | - |
| 1777992308 | 22.22° C | 44% | 1008.3 hPa | - | - | - | - |
| 1777992007 | 22.22° C | 44% | 1008.5 hPa | - | - | - | - |
| 1777991709 | 22.78° C | 43% | 1008.8 hPa | - | - | - | - |
| 1777991408 | 22.78° C | 45% | 1008.6 hPa | - | - | - | - |
| 1777991107 | 22.22° C | 44% | 1008.6 hPa | - | - | - | - |
* Rain since midnight (hover to see other rain measurements)
** Current wind speed in m/s (hover to see current wind gust speed)